CDT,Max TemperatureF,Mean TemperatureF,Min TemperatureF,Max Dew PointF,MeanDew PointF,Min DewpointF,Max Humidity, Mean Humidity, Min Humidity, Max Sea Level PressureIn, Mean Sea Level PressureIn, Min Sea Level PressureIn, Max VisibilityMiles, Mean VisibilityMiles, Min VisibilityMiles, Max Wind SpeedMPH, Mean Wind SpeedMPH, Max Gust SpeedMPH,PrecipitationIn, CloudCover, Events, WindDirDegrees
2013-9-1,100,88,75,74,70,62,87,60,33,29.94,29.87,29.79,10,10,10,15,7,18,0.00,1,,183
2013-9-2,100,89,77,76,71,61,91,60,29,29.99,29.91,29.81,10,10,10,14,5,18,0.00,2,,215
2013-9-3,100,89,78,73,69,65,79,56,33,29.98,29.91,29.86,10,10,10,17,6,21,T,2,Thunderstorm,203
2013-9-4,98,87,76,73,69,66,82,60,38,30.03,29.97,29.91,10,10,10,15,5,18,T,0,,168
2013-9-5,99,87,75,73,70,66,87,63,38,30.09,30.03,29.97,10,10,10,25,5,31,0.00,0,,137
2013-9-6,99,87,74,73,69,62,87,60,33,30.09,30.01,29.94,10,10,10,21,5,24,0.00,0,,124
2013-9-7,97,86,74,75,71,66,100,74,47,30.03,29.98,29.93,10,10,4,25,4,33,0.10,2,Rain-Thunderstorm,139
2013-9-8,95,83,71,75,72,67,100,71,41,30.01,29.96,29.88,10,8,0,22,5,28,T,4,Fog-Rain-Thunderstorm,103
2013-9-9,95,84,72,73,70,65,93,65,36,30.01,29.95,29.92,10,10,10,20,6,28,T,2,Rain-Thunderstorm,128
2013-9-10,95,85,75,73,70,59,94,63,32,30.07,30.02,29.98,10,10,10,23,8,28,0.00,1,Thunderstorm,110
2013-9-11,98,85,72,72,67,59,93,61,29,30.10,30.04,29.97,10,10,7,15,6,21,0.00,0,,95
2013-9-12,98,85,72,72,67,62,87,60,33,30.06,29.99,29.89,10,10,8,18,4,22,0.00,1,,118
2013-9-13,99,86,72,68,64,60,79,54,29,29.95,29.89,29.79,10,10,10,14,3,21,0.00,1,,161
2013-9-14,96,86,75,71,67,65,74,55,36,29.93,29.89,29.83,10,10,10,14,4,20,0.00,2,,119
2013-9-15,96,85,74,73,70,64,93,66,39,30.01,29.96,29.91,10,10,8,14,7,20,0.00,0,,106
2013-9-16,96,86,75,73,70,59,94,64,34,30.06,30.00,29.94,10,10,10,16,7,22,0.00,0,,96
2013-9-17,98,87,75,75,69,62,88,61,33,30.06,29.99,29.91,10,10,10,17,7,24,0.00,1,,118
2013-9-18,98,86,74,73,69,63,87,61,35,30.01,29.95,29.86,10,10,10,20,6,25,0.00,1,,122
2013-9-19,96,86,75,76,73,69,94,68,42,29.97,29.91,29.83,10,10,9,26,8,33,0.11,2,Rain,109
2013-9-20,78,75,71,79,74,70,100,96,91,29.90,29.81,29.76,10,7,0,21,8,24,2.97,8,Fog-Rain-Thunderstorm,126
2013-9-21,85,78,70,70,66,58,100,74,47,29.90,29.84,29.79,10,10,10,21,12,28,0.01,6,Rain,13
2013-9-22,87,75,62,56,51,46,67,47,27,29.88,29.82,29.76,10,10,10,16,9,24,0.00,1,,42
2013-9-23,89,79,69,68,61,52,74,59,44,29.83,29.79,29.74,10,10,10,10,5,15,0.00,4,,89
2013-9-24,96,84,71,68,63,54,84,55,26,29.89,29.84,29.80,10,10,10,16,5,23,0.00,0,,12
2013-9-25,96,82,67,63,56,49,76,48,20,29.88,29.83,29.77,10,10,10,9,2,13,0.00,0,,56
2013-9-26,93,80,67,70,61,54,84,56,28,29.90,29.85,29.81,10,10,10,16,6,23,0.00,1,,166
2013-9-27,91,82,72,75,71,65,90,73,56,29.95,29.90,29.84,10,10,10,17,9,22,T,5,,135
2013-9-28,93,84,74,77,74,72,94,73,52,30.00,29.93,29.87,10,9,2,20,9,29,0.84,6,Rain-Thunderstorm,149
2013-9-29,76,72,68,75,71,69,100,91,82,30.02,29.97,29.91,10,7,2,14,5,16,1.16,8,Rain-Thunderstorm,341
2013-9-30,86,78,70,71,68,65,97,74,51,29.92,29.87,29.81,10,10,10,10,2,13,0.00,4,,192